TimeCDT,TemperatureF,Dew PointF,Humidity,Sea Level PressureIn,VisibilityMPH,Wind Direction,Wind SpeedMPH,Gust SpeedMPH,PrecipitationIn,Events,Conditions,WindDirDegrees,DateUTC
12:53 AM,64.0,63.0,96,30.06,10.0,North,5.8,-,0.04,,Partly Cloudy,10,2013-07-15 05:53:00
1:53 AM,64.0,63.0,96,30.04,10.0,NNW,9.2,-,0.04,,Partly Cloudy,340,2013-07-15 06:53:00
2:09 AM,64.4,62.6,94,30.10,10.0,NNW,9.2,-,0.01,,Scattered Clouds,340,2013-07-15 07:09:00
2:18 AM,64.4,64.4,100,30.09,9.0,North,10.4,-,0.01,,Mostly Cloudy,350,2013-07-15 07:18:00
2:53 AM,64.9,64.0,97,30.06,6.0,NNE,11.5,-,0.03,,Overcast,30,2013-07-15 07:53:00
3:53 AM,64.0,64.0,100,30.06,6.0,NE,6.9,-,0.02,,Scattered Clouds,40,2013-07-15 08:53:00
4:02 AM,64.4,64.4,100,30.10,5.0,NNE,5.8,-,0.01,,Mostly Cloudy,20,2013-07-15 09:02:00
4:32 AM,64.4,64.4,100,30.10,1.5,NNE,6.9,-,0.01,,Overcast,30,2013-07-15 09:32:00
4:37 AM,64.4,64.4,100,30.10,0.5,NNE,8.1,-,0.02,Fog,Fog,30,2013-07-15 09:37:00
4:46 AM,64.4,64.4,100,30.10,0.5,NE,6.9,-,0.02,Fog,Fog,40,2013-07-15 09:46:00
4:53 AM,64.0,64.0,100,30.06,0.8,NE,6.9,-,0.02,,Mist,40,2013-07-15 09:53:00
5:03 AM,64.4,64.4,100,30.10,1.2,NE,6.9,-,N/A,,Overcast,40,2013-07-15 10:03:00
5:10 AM,64.4,64.4,100,30.10,0.8,NNE,6.9,-,N/A,,Mist,30,2013-07-15 10:10:00
5:12 AM,64.4,64.4,100,30.10,0.5,NNE,6.9,-,N/A,Fog,Fog,30,2013-07-15 10:12:00
5:53 AM,64.0,64.0,100,30.06,0.5,NNE,5.8,-,0.01,Fog,Fog,30,2013-07-15 10:53:00
5:58 AM,64.4,64.4,100,30.11,0.8,NNE,6.9,-,N/A,,Mist,20,2013-07-15 10:58:00
6:09 AM,64.4,64.4,100,30.11,1.5,NNE,8.1,-,N/A,,Overcast,20,2013-07-15 11:09:00
6:29 AM,64.4,64.4,100,30.12,3.0,NNE,6.9,-,N/A,,Overcast,20,2013-07-15 11:29:00
6:45 AM,64.4,64.4,100,30.11,6.0,NNE,9.2,-,N/A,,Overcast,30,2013-07-15 11:45:00
6:53 AM,64.0,64.0,100,30.07,6.0,North,10.4,-,N/A,,Overcast,10,2013-07-15 11:53:00
7:14 AM,64.4,62.6,94,30.12,6.0,North,6.9,-,N/A,,Overcast,10,2013-07-15 12:14:00
7:53 AM,64.0,62.1,93,30.07,10.0,NNE,11.5,-,N/A,,Overcast,20,2013-07-15 12:53:00
8:53 AM,66.0,63.0,90,30.08,10.0,NE,9.2,-,N/A,,Overcast,40,2013-07-15 13:53:00
9:53 AM,66.0,61.0,84,30.09,10.0,NE,10.4,-,N/A,,Overcast,40,2013-07-15 14:53:00
10:53 AM,66.9,61.0,81,30.09,10.0,NE,10.4,-,N/A,,Overcast,50,2013-07-15 15:53:00
11:40 AM,66.2,60.8,83,30.14,10.0,NE,12.7,-,N/A,,Overcast,50,2013-07-15 16:40:00
11:53 AM,66.9,61.0,81,30.09,10.0,ENE,10.4,-,N/A,,Overcast,60,2013-07-15 16:53:00
12:53 PM,68.0,63.0,84,30.09,4.0,ENE,8.1,-,0.00,Rain,Light Rain,60,2013-07-15 17:53:00
1:06 PM,69.8,64.4,83,30.13,10.0,ENE,8.1,-,0.00,Rain,Light Rain,70,2013-07-15 18:06:00
1:53 PM,72.0,62.1,71,30.06,10.0,East,8.1,-,0.00,,Overcast,80,2013-07-15 18:53:00
2:53 PM,72.0,63.0,73,30.06,10.0,East,12.7,-,N/A,,Overcast,80,2013-07-15 19:53:00
3:24 PM,69.8,64.4,83,30.11,5.0,East,10.4,-,0.00,Rain,Light Rain,100,2013-07-15 20:24:00
3:53 PM,70.0,66.0,87,30.06,10.0,East,12.7,-,0.01,,Mostly Cloudy,80,2013-07-15 20:53:00
4:53 PM,73.9,64.0,71,30.04,10.0,East,13.8,-,N/A,,Mostly Cloudy,90,2013-07-15 21:53:00
5:53 PM,75.0,63.0,66,30.04,10.0,ESE,11.5,-,N/A,,Mostly Cloudy,120,2013-07-15 22:53:00
6:53 PM,72.0,63.0,73,30.04,10.0,ESE,15.0,-,N/A,,Clear,110,2013-07-15 23:53:00
7:53 PM,70.0,64.0,81,30.07,10.0,ESE,13.8,-,N/A,,Overcast,120,2013-07-16 00:53:00
8:50 PM,68.0,64.4,88,30.12,10.0,ESE,15.0,-,0.00,,Overcast,110,2013-07-16 01:50:00
8:53 PM,66.9,64.9,93,30.08,10.0,ESE,13.8,-,0.00,,Overcast,110,2013-07-16 01:53:00
9:07 PM,66.2,64.4,94,30.13,9.0,ESE,11.5,-,0.00,Rain,Light Rain,120,2013-07-16 02:07:00
9:28 PM,66.2,64.4,94,30.13,6.0,ESE,12.7,-,0.00,Rain,Light Rain,110,2013-07-16 02:28:00
9:53 PM,66.0,64.9,96,30.10,9.0,ESE,12.7,-,0.01,,Overcast,120,2013-07-16 02:53:00
10:37 PM,66.2,64.4,94,30.16,2.5,ESE,12.7,-,0.00,Rain,Light Rain,120,2013-07-16 03:37:00
10:53 PM,66.0,64.9,96,30.12,3.0,ESE,12.7,-,0.00,Rain,Light Rain,120,2013-07-16 03:53:00
11:05 PM,66.2,64.4,94,30.16,4.0,ESE,10.4,-,0.00,Rain,Light Rain,120,2013-07-16 04:05:00
11:51 PM,66.2,66.2,100,30.17,2.0,ESE,11.5,-,0.00,Rain,Light Rain,120,2013-07-16 04:51:00
11:53 PM,66.0,66.0,100,30.13,2.0,ESE,10.4,-,0.00,Rain,Light Rain,120,2013-07-16 04:53:00